Find Starlink 38145

NORAD ID: 100528 Int'l Des: 2026-197 Owner: SPXS Country: US Constellation: starlink operational

Current View

Loading 3D Globe...

About Starlink 38145

Starlink 38145 (NORAD 100528) is a starlink constellation satellite launched Aug 25, 2026 by SPXS of US. with a mass of 575.00 kg.

Upcoming Passes

Passes for default location (London). Set your location on the main map for personalized predictions.

Altitude History

Loading altitude history...

Two-Line Element Set

1 A0528U 26197AC 26249.48885220 -.00716423 00000-0 -44570-2 0 9997
2 A0528 69.9989 161.7493 0004326 257.2911 102.7805 15.78548550 1776
Epoch: Sep 6, 2026 • Age: 10 hours

Current Status

Altitude 339.8 km
Apogee / Perigee N/A
Velocity 7.71 km/s
Sub-Earth Point -11.40°S, 33.71°E
Launch Date Aug 25, 2026
Age 12 days
Type internet

Technical Details

Classification Payload
Mass 575.00 kg
Dry Mass 530.00 kg
Total Mass 575.00 kg
Length 0.30 m
Diameter 4.10 m
Span 29.00 m
Shape Box + pan
Manufacturer SPXS
Bus Type Starlink V2MO
Phase Status In Orbit
Owner/State SPXS/US

Most Searched